Погода в Форт-Лодердейл

США     26°08′46″N   80°08′29″W
темп.,
°C
ветер,
м/с
пор.,
м/с
влажн.,
%
обл.,
%
осадки,
мм/ч
давл.,
гПа
погр.,
м
3 августа, вт
вт323:00+28ююз355971 1.0 1018338
02:00+28юз2472100 1.4 1016199
05:00+28ююз367896 0.7 1015495
08:00+28юз367389 2.4 1016479
11:00+31ююз4456100 3.6 10171132
14:00+31ююв6656100 9.6 10171165
17:00+31ю6752100 1.4 10151204
20:00+30ююз5655100 1.6 10161122
4 августа, ср
ср423:00+30ююз345997 0.0 1017791
02:00+28юз1171100 2.7 101759
05:00+28юв4771100 1.2 1015695
08:00+29ююв4770100 1.2 1016964
11:00+30ю4563100 1.9 10171094
14:00+30ююв3462100 3.6 1017995
17:00+28в1368100 2.6 1017268
20:00+24с4582100 10.2 1019273
5 августа, чт
чт523:00+26вюв3671100 0.2 1018211
02:00+26в257493 0.2 1018286
05:00+27вюв4774100 0.0 1018409
08:00+28вюв367182 0.0 1019741
11:00+32юв555455 0.0 10191404
14:00+33юв544572 0.0 10181716
17:00+33юв534426 0.0 10171607
20:00+31вюв54565 0.0 1018911
6 августа, пт
пт623:00+29вюв33665 0.3 1019768
02:00+29вюв34695 0.5 1018676
05:00+28вюв35715 0.0 1018691
08:00+29вюв466799 0.0 1019721
11:00+32юв4558100 0.2 10191407
14:00+34юв6547100 0.3 10181850
17:00+33юв654962 0.0 10181689
20:00+31юв55605 0.0 1018971
7 августа, сб
сб723:00+30вюв45655 0.0 1019795
02:00+28вюв467388 3.6 1018473
05:00+28юв46755 0.5 1018661
08:00+29вюв457067 0.5 1018853
11:00+32вюв555378 0.0 10191373
14:00+34вюв554316 0.0 10181671
17:00+33вюв655011 0.1 10171755
20:00+31вюв55590 0.1 10181037